Location: Olsztyn
(53.7767°N, 20.4765°E)
Time: 10:25:31
(UTC+01:00)

S-56A Canister/Altair - All Passes

Search period start: 28 January 2022 00:00
Search period end: 07 February 2022 00:00
Orbit: 634 x 2499 km, 38.9° (Epoch: 26 January)

Date Brightness Start Highest point End Pass type
(mag) Time Alt. Az. Time Alt. Az. Time Alt. Az.
28 Jan - 08:02:13 10° SSW 08:05:07 16° SSE 08:08:27 10° SE daylight
28 Jan - 10:04:03 10° SW 10:07:43 18° S 10:12:12 10° SSE daylight
28 Jan - 12:09:29 10° SSW 12:10:38 10° SSW 12:11:51 10° SSW daylight
29 Jan - 07:30:17 10° SSW 07:32:43 14° SSE 07:35:24 10° SE daylight
29 Jan - 09:31:53 10° SW 09:35:14 17° S 09:39:14 10° SSE daylight
29 Jan - 11:36:54 10° SSW 11:38:03 10° SSW 11:39:17 10° SSW daylight
30 Jan - 06:58:24 10° S 07:00:19 12° SSE 07:02:20 10° SE daylight
30 Jan - 08:59:42 10° SW 09:02:46 16° S 09:06:19 10° SE daylight
30 Jan - 11:04:27 10° SSW 11:05:30 10° SSW 11:06:37 10° S daylight
31 Jan - 06:26:42 10° S 06:27:55 11° SSE 06:29:10 10° SSE visible
31 Jan - 08:27:32 10° SW 08:30:19 15° S 08:33:28 10° SSE daylight
31 Jan - 10:32:04 10° SSW 10:32:59 10° SSW 10:33:57 10° S daylight
01 Feb - 07:55:22 10° SSW 07:57:53 14° S 08:00:41 10° SSE daylight
01 Feb - 09:59:43 10° SSW 10:00:29 10° SSW 10:01:17 10° S daylight
02 Feb - 07:23:10 10° SSW 07:25:29 14° S 07:27:56 10° SSE daylight
02 Feb - 09:27:23 10° SSW 09:28:01 10° SSW 09:28:39 10° S daylight
03 Feb - 06:50:57 10° SSW 06:53:04 13° S 06:55:16 10° SSE daylight
03 Feb - 08:55:01 10° SSW 08:55:34 10° SSW 08:56:08 10° S daylight
04 Feb - 06:18:41 10° SSW 06:20:40 13° S 06:22:41 10° SSE visible
04 Feb - 08:22:30 10° SSW 08:23:07 10° SSW 08:23:45 10° S daylight
05 Feb - 05:46:20 10° SSW 05:48:16 12° S 05:50:10 10° SSE visible
05 Feb - 07:49:53 10° SSW 07:50:42 10° SSW 07:51:31 10° S daylight
06 Feb - 05:13:56 10° SSW 05:15:51 12° S 05:17:44 10° SSE visible
06 Feb - 07:17:14 10° SSW 07:18:17 11° SSW 07:19:20 10° S daylight
